Read MPEC 2000-U21
Read MPEC 2000-U23
M.P.E.C. 2000-U22 Issued 2000 Oct. 24, 20:38 UT
The Minor Planet Electronic Circulars contain information on unusual
minor planets and routine data on comets. They are published
on behalf of Commission 20 of the International Astronomical Union by the
Minor Planet Center, Smithsonian Astrophysical Observatory,
Cambridge, MA 02138, U.S.A.
Prepared using the Tamkin Foundation Computer Network
MPC@CFA.HARVARD.EDU
URL http://cfa-www.harvard.edu/iau/mpc.html ISSN 1523-6714
2000 SB1
Additional observations:
K00S01B C2000 10 17.28771 02 09 00.96 +60 25 41.9 17.6 704
K00S01B C2000 10 17.30151 02 09 01.10 +60 25 47.0 17.8 704
K00S01B C2000 10 17.31593 02 09 01.29 +60 25 51.9 18.0 704
K00S01B C2000 10 18.29598 02 09 17.58 +60 29 25.1 16.7 704
K00S01B C2000 10 18.31001 02 09 17.72 +60 29 28.4 18.6 704
K00S01B C2000 10 18.31698 02 09 17.88 +60 29 29.4 17.7 704
K00S01B C2000 10 18.32430 02 09 17.94 +60 29 33.2 18.2 704
K00S01B C2000 10 18.33215 02 09 18.00 +60 29 33.8 18.5 704
K00S01B C2000 10 18.33939 02 09 18.11 +60 29 35.7 17.8 704
K00S01B C2000 10 18.35496 02 09 18.15 +60 29 39.0 17.2 704
K00S01B C2000 10 18.36046 02 09 18.29 +60 29 39.8 18.9 704
K00S01B C2000 10 18.37568 02 09 18.26 +60 29 43.0 18.4 704
K00S01B C2000 10 19.79213 02 09 41.42 +60 33 31.6 17.0 R 046
K00S01B C2000 10 19.79369 02 09 41.41 +60 33 31.7 046
K00S01B C2000 10 19.79502 02 09 41.46 +60 33 31.9 046
K00S01B C2000 10 19.80067 02 09 41.57 +60 33 32.9 046
K00S01B C2000 10 19.80385 02 09 41.56 +60 33 33.5 046
K00S01B C2000 10 21.12287 02 09 59.82 +60 35 55.9 17.0 V 912
K00S01B C2000 10 21.13894 02 09 59.99 +60 35 57.7 16.8 V 912
K00S01B C2000 10 21.15500 02 10 00.04 +60 35 59.0 16.8 V 912
K00S01B C2000 10 21.77597 02 10 08.96 +60 36 30.1 17.0 R 151
K00S01B C2000 10 21.77889 02 10 09.00 +60 36 30.5 17.1 R 151
K00S01B C2000 10 21.78246 02 10 09.03 +60 36 30.7 17.2 R 151
K00S01B C2000 10 21.78588 02 10 09.04 +60 36 31.0 17.3 R 151
K00S01B C2000 10 21.79326 02 10 09.16 +60 36 31.6 17.1 R 151
K00S01B C2000 10 22.13728 02 10 12.83 +60 36 49.1 912
K00S01B C2000 10 22.14752 02 10 13.14 +60 36 49.8 912
K00S01B C2000 10 22.19197 02 10 13.57 +60 36 54.5 912
K00S01B C2000 10 22.79537 02 10 21.83 +60 36 53.1 17.3 V 557
K00S01B C2000 10 22.83809 02 10 22.20 +60 36 54.5 557
K00S01B C2000 10 22.88442 02 10 22.68 +60 36 55.6 16.7 R 587
K00S01B C2000 10 22.88469 02 10 22.53 +60 36 55.4 557
K00S01B C2000 10 22.96221 02 10 23.12 +60 36 56.3 587
K00S01B C2000 10 23.01809 02 10 23.34 +60 36 54.8 16.7 R 118
K00S01B C2000 10 23.06329 02 10 23.62 +60 36 53.3 118
K00S01B C2000 10 23.07228 02 10 23.71 +60 36 52.8 118
K00S01B C2000 10 23.26337 02 10 27.26 +60 36 52.5 670
K00S01B C2000 10 23.32516 02 10 27.52 +60 36 51.5 670
K00S01B C2000 10 23.83881 02 10 34.35 +60 36 27.2 118
K00S01B C2000 10 23.88858 02 10 34.66 +60 36 25.7 16.6 R 118
K00S01B C2000 10 24.11144 02 10 36.01 +60 36 09.9 16.9 R 046
K00S01B C2000 10 24.11284 02 10 36.03 +60 36 09.7 046
K00S01B C2000 10 24.11563 02 10 36.06 +60 36 09.5 17.0 R 046
K00S01B C2000 10 24.11786 02 10 36.05 +60 36 09.3 046
K00S01B C2000 10 24.11898 02 10 36.07 +60 36 09.1 046
K00S01B C2000 10 24.12096 02 10 36.09 +60 36 09.0 16.9 R 046
K00S01B C2000 10 24.12604 02 10 37.86 +60 36 12.2 16.7 R 850
K00S01B C2000 10 24.19306 02 10 38.18 +60 36 09.4 16.5 R 850
K00S01B C2000 10 24.26632 02 10 38.42 +60 36 04.5 16.9 R 850
K00S01B C2000 10 24.28552 02 10 39.28 +60 36 03.1 670
K00S01B C2000 10 24.41168 02 10 39.75 +60 35 52.7 670
Observer details:
046 Klet. Observers J. Ticha, M. Tichy, M. Kocer. 0.57-m f/5.2
reflector + CCD. Stellar appearance.
118 Modra. Observers A. Galad, L. Kornos, P. Koleny. 0.6-m f/5.5
reflector + CCD.
151 Eschenberg Observatory, Winterthur. Observer M. Griesser. 0.40-m f/5.8
Hypergraph.
557 Ondrejov. Observers L. Sarounova, P. Kusnirak. 0.65-m f/3.6
reflector + CCD.
587 Sormano. Observers F. Manca, G. Ventre. 0.5-m reflector + CCD.
670 Camarillo. Observer J. E. Rogers. 0.30-m f/6.7 Helin Telescope + CCD.
704 Lincoln Laboratory ETS, New Mexico. Observers M. Blythe, F. Shelly,
M. Bezpalko, M. Elowitz, R. Huber, L. Manguso. Measurers J. Stuart,
R. Sayer, J. B. Evans, H. Viggh. 1.0-m f/2.15 reflector + CCD.
850 Cordell-Lorenz Observatory, Sewanee. Observer D. T. Durig. 0.3-m f/5.75
Schmidt-Cassegrain + CCD.
912 Carbuncle Hill Observatory, Greene. Observer D. Pray. 0.4-m f/3.3
Schmidt-Cassegrain + CCD
Orbital elements:
2000 SB1
Epoch 2000 Sept. 13.0 TT = JDT 2451800.5 Spahr
M 346.99324 (2000.0) P Q
n 0.16118417 Peri. 145.26829 +0.42308925 -0.82509198
a 3.3439090 Node 277.02927 +0.72208183 +0.55667754
e 0.5410442 Incl. 22.16615 +0.54735119 -0.09660925
P 6.11 H 15.6 G 0.15 U 6
From 58 observations 2000 Sept. 18-Oct. 24, mean residual 0".38.
Ephemeris:
2000 SB1 a,e,i = 3.34, 0.54, 22 q = 1.5347
Date TT R. A. (2000) Decl. Delta r Elong. Phase V
2000 10 13 02 07.61 +60 02.1 0.810 1.618 126.8 29.6 17.5
2000 10 23 02 10.39 +60 36.9 0.750 1.589 130.7 28.3 17.2
2000 11 02 02 12.33 +59 53.4 0.700 1.566 134.8 26.7 17.0
2000 11 12 02 15.47 +57 41.7 0.661 1.549 138.8 24.9 16.8
2000 11 22 02 21.48 +54 01.1 0.635 1.539 142.0 23.3 16.6
2000 12 02 02 31.09 +49 04.2 0.625 1.535 143.6 22.4 16.6
2000 12 12 02 44.15 +43 19.7 0.635 1.538 142.5 22.9 16.6
2000 12 22 02 59.81 +37 24.7 0.665 1.547 138.8 24.8 16.8
2001 01 01 03 17.31 +31 53.4 0.716 1.563 133.2 27.3 17.1
2001 01 11 03 36.01 +27 07.9 0.786 1.586 127.0 29.7 17.4
2001 01 21 03 55.42 +23 15.1 0.873 1.614 120.5 31.7 17.7
2001 01 31 04 15.27 +20 11.9 0.975 1.647 114.4 33.0 18.0
2001 02 10 04 35.40 +17 49.9 1.089 1.686 108.5 33.7 18.3
2001 02 20 04 55.63 +15 59.7 1.213 1.728 103.0 33.9 18.6
2001 03 02 05 15.92 +14 32.4 1.345 1.774 97.7 33.6 18.9
2001 03 12 05 36.20 +13 20.7 1.484 1.823 92.6 33.0 19.1
2001 03 22 05 56.39 +12 18.5 1.628 1.875 87.7 32.1 19.4
2001 04 01 06 16.45 +11 21.5 1.777 1.929 83.0 30.9 19.6
2001 04 11 06 36.33 +10 26.2 1.929 1.985 78.3 29.6 19.8
2001 04 21 06 55.98 +09 30.3 2.082 2.042 73.7 28.2 20.0
Timothy B. Spahr (C) Copyright 2000 MPC M.P.E.C. 2000-U22
Read MPEC 2000-U21
Read MPEC 2000-U23
Our Web policy. Index to the CBAT/MPC/ICQ pages.